Wind_Speed
30 29 29 28 26 24 22 20 19 19 18 17 15 14 13 13 12 12 13 15 17 17 17 17 17 17 16 14 12 10 8 8 10 11 14 11 7 8 11 10 11 17 21 18 17 18 17 17 17 15 13 10 8 8 8 9 7 6 5 6 6 1 1 4 2 6 4 4 5 9 8 8 10 10 9 9 9 10 10 9 11 9 9 15 22 30 31 31
31 30 30 29 27 24 22 21 20 19 18 17 16 15 14 13 13 12 13 15 16 17 16 16 17 16 15 12 11 8 7 10 13 14 15 12 8 7 10 11 12 20 24 18 19 21 17 15 16 15 11 8 8 9 8 8 7 7 6 7 5 2 6 7 3 11 8 6 9 11 8 6 7 9 8 9 10 11 11 10 12 12 14 20 26 31 31 31
32 31 31 30 28 25 22 21 20 19 17 17 17 16 15 14 13 13 14 15 16 17 16 16 16 15 12 10 9 6 5 11 13 9 5 7 11 10 8 10 15 24 27 20 20 21 17 16 16 15 11 8 8 9 8 7 7 8 7 7 3 2 6 3 4 6 6 7 10 11 8 6 2 6 7 8 10 12 11 11 12 14 18 21 24 28 30 30
33 32 32 30 28 25 23 21 19 19 17 16 17 17 17 16 15 15 16 16 16 17 16 15 15 12 9 8 7 3 6 11 6 5 5 3 10 11 9 13 18 26 28 20 18 20 16 16 15 15 12 9 9 9 9 8 7 7 7 8 4 3 4 4 5 5 4 0 2 6 10 7 8 7 8 8 8 8 7 9 13 15 19 23 22 24 28 28
33 33 32 30 28 26 22 20 19 18 17 17 18 18 18 17 16 16 17 17 17 17 15 15 14 10 7 7 6 1 7 6 4 8 5 7 9 10 10 16 21 26 27 20 18 20 17 15 14 13 11 9 9 9 10 11 8 7 9 10 9 6 3 3 1 3 3 2 2 3 7 10 11 9 6 8 4 4 3 4 12 18 19 23 23 22 25 25
33 33 33 31 28 25 22 20 18 17 17 17 19 19 19 18 17 18 18 18 18 16 14 14 11 6 5 7 4 4 8 2 6 7 7 9 8 8 11 18 24 25 25 21 19 19 17 15 13 12 10 10 11 11 9 11 10 8 9 9 11 9 2 1 3 3 2 3 1 3 4 7 10 8 6 9 2 4 2 9 11 18 20 24 24 22 24 25
33 34 33 31 28 25 22 19 18 17 17 18 19 20 20 20 19 19 18 18 16 14 13 10 5 4 4 6 3 7 10 3 6 8 11 12 6 7 13 20 26 25 23 21 20 18 16 16 14 12 11 10 11 12 10 11 12 11 10 9 9 8 5 4 3 4 5 5 3 1 4 6 7 8 10 8 4 3 4 12 14 17 20 23 23 23 23 24
34 34 33 32 29 25 22 19 17 17 18 19 20 22 22 22 21 18 16 14 13 11 8 5 3 4 4 4 5 8 8 1 7 8 12 11 5 6 15 21 25 24 22 22 20 18 16 17 16 12 11 10 10 11 10 11 13 13 13 11 7 6 6 5 5 6 6 5 5 4 5 7 7 5 9 9 3 3 10 13 17 17 20 21 21 23 22 22
34 34 33 32 29 26 22 19 18 18 19 20 22 24 23 22 18 14 10 9 8 5 2 2 4 4 3 5 9 7 1 6 7 7 8 6 2 10 17 20 24 23 20 21 20 19 16 14 16 14 11 10 10 11 10 11 9 10 14 13 10 9 7 7 8 8 7 6 5 7 8 6 7 4 8 15 10 9 11 16 16 17 20 20 20 21 22 23
34 34 33 31 29 26 22 19 18 18 20 22 24 24 21 18 14 9 5 4 3 2 2 3 4 5 5 7 9 5 5 7 4 5 5 2 6 14 17 18 23 21 19 19 19 20 15 13 15 13 11 9 9 10 10 11 7 4 10 13 14 13 9 8 9 9 8 8 8 9 5 2 6 6 5 13 15 10 13 16 15 17 18 19 19 20 21 22
34 34 33 31 28 26 22 20 17 18 20 23 25 23 17 14 10 6 2 2 3 6 6 5 5 6 8 9 9 3 7 5 3 4 4 3 9 14 14 15 21 20 17 17 18 19 17 15 13 10 8 7 9 10 11 12 10 7 7 9 13 15 12 11 11 10 9 8 9 10 6 4 5 4 4 6 11 11 13 16 15 15 16 18 19 19 18 19
33 34 34 31 28 25 22 20 17 18 21 24 26 21 15 12 9 3 2 6 9 9 6 5 6 6 9 10 6 5 7 3 2 3 1 4 8 12 10 11 18 19 16 15 16 18 19 17 13 12 8 4 8 8 7 11 12 12 10 9 11 14 15 15 14 12 12 8 8 10 8 8 4 4 7 7 9 10 11 14 14 14 15 17 18 17 16 18
33 34 34 32 29 25 22 19 17 18 21 24 25 19 13 11 7 3 5 10 9 5 2 3 5 7 9 5 2 6 6 3 2 3 2 3 6 10 9 9 14 17 16 14 14 16 18 17 14 15 9 6 7 2 3 7 10 11 11 9 10 11 13 16 15 15 15 10 9 11 8 6 8 10 10 7 8 9 8 10 12 14 14 15 17 16 16 18
33 33 33 32 29 25 22 20 17 18 21 24 24 17 13 10 6 4 7 11 5 1 1 1 4 7 9 1 6 5 3 2 3 4 3 4 6 8 10 10 13 16 15 14 12 13 17 17 14 13 11 10 8 3 3 8 9 10 12 9 9 9 9 14 16 17 16 11 11 12 8 5 6 9 9 9 8 10 10 13 14 14 14 14 16 17 17 18
31 32 32 31 28 25 22 20 18 18 21 25 23 15 12 9 6 6 8 11 4 0 2 2 6 7 8 2 6 3 1 2 3 3 3 6 8 7 10 11 13 15 12 12 11 11 15 16 13 10 10 12 11 7 5 9 8 9 10 9 10 9 9 13 16 18 16 12 15 14 7 3 2 8 9 12 12 14 13 12 13 15 16 16 16 16 16 17
30 31 31 30 28 24 22 21 18 19 21 24 21 13 12 9 6 8 8 10 3 1 0 4 7 8 7 1 4 1 1 1 3 2 3 6 8 6 9 11 13 14 11 10 10 10 12 13 11 10 10 11 11 8 7 8 8 9 9 9 11 11 10 11 14 19 18 13 17 17 9 4 6 11 14 17 17 16 12 10 13 15 16 16 15 15 16 16
30 30 30 30 27 24 21 20 19 19 20 22 18 12 11 10 6 8 10 9 4 3 5 8 6 7 5 3 1 2 3 5 4 2 3 5 8 6 8 10 12 13 12 11 9 9 10 9 8 9 10 10 10 9 8 9 9 9 9 10 11 13 12 10 10 16 17 16 15 16 13 7 7 10 11 14 18 17 12 11 14 14 14 15 14 15 16 16
30 30 30 29 28 24 20 18 18 19 20 20 16 13 13 11 8 10 11 7 6 7 9 9 7 6 2 3 1 4 6 5 2 3 3 5 8 7 9 9 11 13 12 10 9 10 10 9 9 9 9 10 10 10 10 10 10 10 10 10 11 13 14 13 11 12 17 18 15 15 15 10 10 10 7 9 15 15 13 12 14 14 14 14 14 14 15 16
30 30 30 29 28 25 20 17 15 17 19 17 17 16 14 12 10 11 12 10 7 5 3 2 4 4 2 4 4 5 5 4 3 5 3 5 8 9 10 9 11 14 12 9 11 12 10 8 10 10 10 12 14 13 13 12 10 10 11 11 12 12 12 14 13 12 17 16 15 16 12 11 14 14 12 13 16 15 14 14 14 14 14 13 13 13 14 16
31 31 31 29 28 26 21 17 13 15 16 17 20 16 9 6 5 5 7 9 3 4 4 3 4 4 2 4 6 7 5 6 4 2 2 5 9 10 10 9 11 13 11 10 11 12 11 10 11 12 13 15 17 17 16 16 11 9 10 11 13 14 12 13 13 12 16 13 15 17 14 14 15 14 18 18 17 15 14 13 14 14 15 13 14 14 15 16
32 31 31 30 28 26 22 16 12 12 12 15 19 11 2 7 5 3 6 5 2 2 3 3 4 3 3 5 7 7 5 3 1 4 2 6 8 9 9 10 12 10 12 13 11 11 11 11 13 16 17 15 16 17 16 17 14 10 9 10 10 12 12 12 13 15 14 10 11 15 17 16 13 13 18 19 15 15 16 17 18 17 16 14 16 15 15 14
32 32 32 30 28 25 21 15 10 9 10 11 11 6 6 8 8 6 8 6 4 3 3 1 3 2 4 2 3 5 8 4 3 5 3 5 8 9 7 9 12 10 12 14 10 10 12 13 16 17 17 15 15 16 16 16 15 11 9 9 9 7 10 10 10 15 13 7 9 14 16 14 13 16 17 18 15 14 17 19 17 16 16 15 16 15 14 13
32 32 32 30 27 24 19 13 9 8 9 8 4 7 6 7 8 8 7 7 4 6 6 3 3 2 3 0 3 5 9 4 1 5 3 6 8 8 7 9 12 11 12 15 12 10 10 12 17 17 15 16 16 13 14 14 13 11 9 9 9 8 8 8 8 14 12 7 8 13 13 12 14 15 15 17 17 16 18 14 11 14 17 16 15 15 15 16
33 33 32 30 26 22 17 13 10 9 7 4 4 7 6 6 8 8 6 8 5 6 5 1 2 2 4 2 4 8 6 2 2 3 2 8 5 4 8 9 12 12 12 15 16 14 11 10 15 18 16 16 16 13 13 12 10 13 13 10 10 11 11 10 9 11 12 9 9 12 11 9 12 15 14 15 16 19 18 14 14 14 16 16 15 14 14 15
33 33 32 29 24 19 17 12 7 5 6 5 3 9 7 7 8 7 7 7 5 6 7 3 3 0 3 3 5 6 4 2 2 3 1 7 7 2 7 8 9 11 13 17 17 14 13 12 12 17 18 16 16 14 14 12 9 11 15 15 15 14 12 13 11 8 8 10 12 12 10 8 12 16 15 13 15 19 16 15 18 15 15 16 15 15 15 14
34 33 31 27 20 17 14 6 4 9 8 2 6 10 9 9 8 6 5 6 4 6 8 6 3 1 1 2 3 4 4 3 2 1 1 3 6 6 6 6 7 10 13 13 12 9 10 13 11 12 16 17 16 14 13 13 10 8 11 14 17 17 15 14 12 10 7 8 11 15 12 9 10 15 17 15 17 19 17 16 18 15 15 16 14 15 15 15
33 32 30 23 14 14 11 6 10 12 6 4 9 10 10 9 7 5 5 6 4 4 5 4 2 1 2 3 5 6 3 1 1 4 2 2 3 5 6 7 7 8 11 8 8 7 10 16 14 12 15 15 13 12 12 14 11 8 8 10 14 16 17 16 12 10 9 9 10 14 14 10 9 12 16 18 18 19 19 20 20 17 18 17 16 17 16 16
33 31 28 18 7 7 9 10 12 9 5 9 11 11 11 8 6 5 6 5 2 3 1 4 3 2 3 3 5 6 4 4 4 4 1 4 5 5 8 10 9 8 10 9 9 8 11 17 17 14 13 12 11 12 13 15 12 10 10 8 8 12 15 16 13 10 9 10 10 13 14 10 10 11 14 18 20 20 20 21 22 20 20 19 18 17 16 16
33 31 24 13 4 3 6 9 10 7 8 11 11 11 10 6 6 5 6 4 3 3 1 2 2 2 4 4 2 4 4 3 4 2 1 6 6 7 8 7 9 10 10 10 11 9 10 14 16 14 11 10 12 14 15 15 12 11 13 9 5 8 10 12 12 10 10 11 11 14 15 11 9 9 11 13 16 18 19 18 19 20 20 20 18 16 16 17
32 30 19 9 5 5 7 8 7 7 10 10 11 12 9 5 5 6 6 3 4 4 1 1 1 1 5 6 4 1 3 2 4 4 4 5 5 7 7 5 8 9 10 11 12 13 12 10 13 13 11 10 12 13 13 13 12 11 13 11 7 8 9 9 9 9 10 11 13 16 18 15 10 8 10 12 13 14 15 15 17 19 21 20 18 17 17 17
31 25 11 4 6 8 9 6 2 8 11 11 11 10 8 5 5 7 4 1 3 3 2 2 1 1 4 5 1 1 2 1 3 5 4 4 6 8 6 6 7 7 8 10 10 13 16 13 10 9 11 11 12 14 12 11 11 10 10 10 8 8 8 8 8 9 10 11 12 16 19 18 13 8 9 12 15 14 13 15 17 19 20 18 18 18 18 16
29 18 4 3 6 7 8 8 9 12 11 11 10 7 6 5 7 6 1 2 2 2 2 3 3 1 2 3 1 2 3 0 2 4 4 3 4 3 2 2 2 5 7 8 9 12 14 15 11 9 11 13 12 11 11 11 11 11 9 9 9 8 7 8 9 9 10 10 11 14 17 16 13 11 11 13 15 16 15 14 15 18 20 19 20 19 16 15
25 11 5 4 6 6 8 9 10 11 10 10 9 6 5 6 5 1 3 2 1 4 4 2 2 2 4 4 1 2 4 1 3 3 3 4 4 2 1 4 6 7 6 5 8 9 10 14 16 13 10 13 14 10 9 10 11 12 11 9 9 8 8 10 9 9 10 11 13 15 14 13 11 12 15 16 14 12 14 15 15 16 19 19 20 19 18 18
20 7 6 7 9 9 9 10 9 10 10 9 7 5 7 7 1 2 3 5 5 4 3 1 2 3 3 3 3 3 3 2 1 4 4 5 7 5 4 3 6 8 8 7 7 8 9 10 14 17 11 13 16 14 11 11 11 12 12 10 11 9 8 8 8 9 9 9 13 16 13 11 9 9 13 19 17 13 12 13 14 16 16 17 19 20 21 21
15 4 7 9 11 9 8 9 8 8 8 7 6 6 7 5 1 3 3 6 4 1 3 0 5 6 4 2 3 3 3 2 2 4 5 4 3 1 1 5 7 7 7 7 5 6 12 6 6 10 10 11 17 16 14 14 10 11 12 11 11 10 9 8 8 10 10 8 10 12 10 8 7 6 7 13 18 19 16 10 11 15 16 16 17 19 19 18
13 5 8 8 8 8 7 7 5 6 7 6 7 6 2 3 6 5 5 4 4 4 3 3 5 6 4 3 3 3 1 3 3 4 3 2 1 3 3 5 7 7 7 6 6 5 9 6 4 3 8 13 15 14 16 17 11 8 11 12 11 11 11 9 10 12 11 11 9 8 9 9 8 7 7 9 14 19 20 15 11 13 16 15 15 17 18 17
13 7 7 5 9 10 6 4 5 6 7 6 5 3 3 5 7 6 4 4 3 3 7 5 2 3 3 1 3 5 2 4 3 3 2 3 2 2 3 4 4 6 8 7 6 4 5 7 3 1 9 13 9 6 11 17 14 10 10 11 11 12 12 9 8 9 10 11 9 10 12 11 9 7 9 12 14 15 19 20 17 15 15 15 14 15 17 18
14 10 6 4 11 9 4 4 6 6 6 6 2 3 5 5 7 6 5 4 3 3 7 4 1 1 3 4 1 4 3 5 1 1 4 2 3 2 2 2 4 5 7 8 6 3 6 8 6 4 9 11 8 7 11 14 16 15 11 8 9 11 11 9 8 8 10 10 8 12 14 12 10 8 9 15 17 16 17 19 21 20 17 15 15 15 17 17
14 9 3 7 11 6 4 5 7 6 7 6 2 3 4 5 7 6 4 4 4 4 5 4 2 1 3 3 5 2 0 3 4 3 3 1 2 3 3 2 3 5 7 8 7 5 5 7 7 6 8 9 9 10 10 11 13 16 15 12 10 9 10 10 9 8 9 9 9 12 12 10 8 9 10 12 14 17 18 16 18 21 20 18 17 16 16 16
11 6 3 12 10 5 5 8 8 7 4 2 3 4 4 5 6 5 5 5 4 2 5 5 2 3 2 2 3 3 1 3 4 4 2 2 0 3 5 4 4 7 8 8 8 6 5 6 8 8 7 7 8 8 11 13 12 13 14 13 11 8 8 9 10 10 9 9 9 10 10 8 7 9 11 8 7 12 16 15 14 17 19 20 19 18 17 16
8 4 6 14 10 6 10 9 5 4 2 3 5 5 4 3 4 5 5 5 4 2 4 6 2 4 5 3 3 1 2 5 5 4 5 3 2 1 3 5 5 8 8 8 7 4 5 5 8 9 7 8 10 11 14 16 14 11 10 12 13 11 9 9 11 12 11 10 9 9 9 7 4 6 10 10 8 9 12 14 13 14 16 17 18 20 18 17
7 2 8 14 11 9 10 3 2 3 1 4 4 5 3 1 2 4 3 3 2 3 1 4 2 4 6 5 6 5 4 8 7 6 8 6 2 2 4 5 6 7 7 8 6 3 3 5 7 9 9 10 11 11 12 13 14 12 10 11 13 13 12 10 9 11 12 12 12 10 9 6 1 4 4 8 8 8 10 11 10 12 14 15 15 18 19 18
2 4 7 11 12 11 8 2 4 2 4 4 2 4 2 2 2 2 3 4 3 1 2 3 2 3 5 4 6 8 7 7 8 8 9 9 3 7 7 6 6 7 6 6 6 2 1 5 7 8 9 12 14 16 15 14 14 12 11 11 12 13 15 13 11 10 9 12 13 11 11 8 5 8 4 3 5 7 8 9 8 8 8 11 15 15 15 16
4 3 5 10 13 10 5 2 4 2 4 4 3 4 4 4 6 4 4 5 4 3 4 5 2 1 4 5 6 8 7 5 7 7 6 6 2 7 7 6 6 8 7 4 4 4 2 5 7 7 8 8 10 12 13 13 12 10 11 14 14 16 18 17 14 11 9 10 13 10 11 11 8 10 8 4 2 4 5 6 6 6 5 7 10 12 14 14
4 3 3 7 8 5 3 5 3 4 4 4 4 4 4 4 4 6 6 5 4 6 4 3 3 3 5 6 6 7 7 6 7 6 5 6 2 2 4 4 4 9 5 8 8 6 6 6 6 7 9 9 8 6 5 7 8 8 13 18 19 21 21 15 12 12 10 10 13 10 7 10 13 11 10 7 5 7 5 2 3 1 2 1 2 2 7 12
2 1 2 3 4 5 6 6 4 4 3 2 3 4 3 3 5 3 6 3 2 6 4 1 2 4 5 6 6 7 8 7 7 7 6 8 5 4 5 4 6 10 4 8 8 7 6 8 9 10 11 10 7 5 8 10 8 8 13 16 18 21 21 13 9 11 11 10 12 11 10 10 10 9 9 8 3 3 2 4 7 7 5 6 9 9 5 1
2 3 4 3 3 4 4 5 5 3 2 1 0 2 3 3 3 3 3 2 2 5 4 2 3 4 3 5 7 6 6 7 8 8 8 8 7 7 8 8 10 10 6 6 8 6 6 9 13 14 15 16 15 14 14 14 12 12 14 14 15 16 19 16 12 12 11 10 11 13 16 14 8 6 4 5 6 5 5 6 6 6 8 9 8 7 4 2
4 4 4 4 3 3 4 5 5 5 5 5 2 1 2 3 3 3 2 1 2 4 3 0 1 3 4 6 7 6 5 5 6 7 7 7 7 8 8 9 11 10 8 9 9 8 7 10 13 15 16 17 17 16 16 15 14 14 16 15 14 15 17 19 16 15 13 12 12 13 17 17 14 7 4 7 5 4 7 7 5 6 8 10 11 9 5 2
4 3 4 3 2 3 4 3 4 6 5 3 2 3 3 3 3 3 3 2 1 2 3 2 1 3 5 5 6 5 4 5 6 6 7 7 8 8 8 8 9 9 10 10 9 8 8 9 13 15 17 17 16 15 15 17 17 16 17 17 15 15 16 16 16 18 17 15 16 17 18 18 16 8 5 7 7 4 7 8 6 7 9 10 11 10 9 9
3 3 4 3 4 4 3 3 3 4 4 1 2 4 2 3 4 4 3 3 1 2 1 4 4 5 6 5 6 6 5 6 7 7 8 8 8 7 7 8 7 7 9 9 7 7 7 8 12 13 13 16 17 16 15 18 18 18 18 18 17 17 18 17 17 17 16 15 17 20 19 16 15 10 3 7 8 6 6 7 7 8 9 11 11 11 10 10
5 4 3 2 4 2 2 3 2 1 4 3 3 4 3 4 5 4 1 2 3 2 2 5 5 6 6 6 7 7 6 7 10 10 10 10 9 8 7 7 6 7 9 8 6 7 7 8 11 11 10 12 16 16 15 16 19 20 20 19 18 18 18 17 16 15 14 14 15 18 17 13 12 10 6 9 10 7 6 8 8 9 10 11 12 11 9 8
5 4 2 3 2 1 2 2 1 1 3 3 3 3 4 4 4 4 1 3 1 2 2 5 6 6 6 6 6 7 8 9 11 12 12 11 12 12 10 11 12 11 10 8 7 7 8 8 8 9 10 11 14 17 15 14 15 15 15 17 18 18 18 18 17 18 18 15 12 13 13 13 11 7 9 12 12 9 8 9 9 10 12 12 11 10 9 8
Wind_Direction
8 6 3 1 359 357 354 353 350 347 345 343 341 339 335 333 329 326 325 324 324 321 322 322 320 321 317 318 314 310 313 287 269 238 234 246 236 230 244 245 220 187 169 181 189 182 184 191 195 194 202 207 213 236 214 209 237 243 239 260 264 53 110 248 116 107 131 152 185 210 181 157 160 145 145 158 158 146 138 131 119 113 119 129 132 139 146 147
7 5 3 0 359 356 354 352 350 348 346 343 342 341 337 333 331 327 324 323 322 320 320 320 321 322 321 322 318 321 311 272 261 251 242 242 239 244 246 233 210 181 175 192 193 185 186 187 191 192 203 212 206 222 217 201 216 239 248 255 271 104 200 238 82 108 136 196 186 198 186 149 158 146 161 169 149 151 147 133 128 118 111 122 133 140 146 150
6 4 2 360 358 356 354 352 349 348 347 344 343 340 337 334 332 328 323 321 320 320 316 316 321 319 320 326 327 337 308 274 258 250 232 232 245 261 253 209 196 181 181 196 194 189 192 186 189 191 204 215 205 209 210 197 206 231 250 261 314 34 222 190 60 90 126 189 174 178 146 91 205 168 174 169 150 166 156 145 141 128 127 132 137 143 150 154
5 3 1 359 357 356 354 351 349 348 348 345 342 338 336 333 330 325 320 318 320 321 314 314 317 314 317 327 341 357 284 273 237 113 85 311 273 259 237 200 189 182 188 204 197 194 196 188 191 197 210 217 206 211 217 208 212 230 236 253 296 326 275 86 59 41 62 88 134 161 127 127 234 208 179 159 155 174 149 152 151 139 140 140 143 149 154 158
4 3 1 358 356 355 353 352 349 348 347 344 339 336 334 331 326 320 315 315 319 319 310 309 311 306 305 325 353 307 270 264 118 79 48 336 299 252 219 195 187 184 196 211 201 198 200 194 194 202 218 226 212 211 221 219 223 245 248 259 278 291 343 56 98 60 28 339 64 157 145 166 202 208 168 112 130 154 100 210 157 144 148 145 149 154 158 162
3 2 1 359 356 354 353 352 349 348 346 341 337 335 333 328 322 315 312 314 315 314 307 305 305 286 292 326 337 255 264 276 79 38 354 341 310 234 203 191 183 184 201 213 204 199 201 197 195 203 218 229 225 220 217 217 222 246 253 248 265 277 303 246 192 145 256 283 122 160 195 183 176 193 133 98 172 129 76 254 171 147 152 148 150 157 165 165
4 2 1 359 357 354 353 350 349 348 343 339 336 333 330 325 319 313 313 313 312 310 302 300 289 252 295 323 289 237 251 264 71 29 349 346 329 208 190 184 177 183 202 210 203 199 200 198 198 205 214 223 231 229 221 220 223 238 257 248 249 263 250 238 188 177 232 255 255 183 201 202 179 180 133 130 223 125 206 221 162 145 150 150 153 160 167 165
4 3 1 360 358 355 352 350 349 346 342 339 334 332 328 321 316 314 314 312 310 308 300 290 239 239 299 301 264 244 237 346 48 19 358 -0 358 183 176 175 178 186 202 207 202 198 200 200 201 206 215 223 232 232 226 228 228 231 249 260 257 259 253 239 213 211 233 240 253 259 220 198 190 188 136 149 245 227 197 171 143 145 148 152 155 159 167 167
3 2 1 360 358 355 353 351 348 346 344 339 335 334 329 322 318 319 318 314 313 317 308 252 225 245 282 266 266 260 184 42 24 10 9 20 64 161 164 172 181 189 202 207 204 201 201 202 204 212 224 230 233 234 229 229 231 228 238 250 254 254 252 241 234 230 237 237 238 244 230 187 184 206 146 157 195 220 167 136 140 149 150 154 158 162 167 170
1 1 0 359 357 355 354 352 349 348 345 339 338 336 332 329 329 334 329 328 335 332 302 264 243 250 254 255 263 260 61 31 359 14 15 65 127 155 166 175 183 192 205 206 205 204 205 208 206 217 240 249 249 241 230 228 236 238 236 245 250 254 251 239 237 230 234 235 226 231 218 164 210 197 150 157 170 183 149 137 147 149 155 160 162 166 167 173
1 1 -0 359 356 355 354 352 350 350 347 341 340 338 336 337 339 344 344 354 331 306 297 271 249 249 252 257 264 302 38 6 323 7 18 131 148 165 175 180 187 199 208 204 207 208 211 215 210 219 237 252 257 247 234 232 243 256 254 256 249 248 250 243 239 229 230 227 220 234 195 173 236 186 174 176 156 161 155 147 149 157 163 162 166 167 166 175
-0 360 360 359 356 355 353 350 348 349 347 341 340 339 336 338 337 338 317 320 314 305 295 257 245 252 262 259 264 8 10 335 325 342 350 150 167 179 183 187 194 205 209 207 209 210 217 220 218 224 222 232 244 242 242 236 240 249 257 267 253 241 238 235 235 227 227 224 205 230 217 184 215 189 173 175 163 165 162 152 155 168 164 162 170 167 168 175
359 358 358 358 356 355 352 348 344 346 347 341 341 337 332 335 322 291 318 326 322 314 293 233 237 244 262 267 65 22 338 298 312 289 228 179 184 189 199 201 202 209 215 218 213 211 220 222 224 230 229 238 238 249 331 251 235 241 244 251 255 244 232 224 224 223 222 222 204 218 235 192 191 203 171 140 170 166 159 168 168 171 165 167 171 166 173 175
358 357 356 356 354 353 351 348 342 344 345 341 340 334 329 329 295 267 322 339 349 24 42 175 213 241 257 271 76 40 342 282 240 226 215 210 198 190 202 207 207 211 218 230 226 216 219 223 229 236 235 241 258 338 317 245 224 229 235 233 244 246 238 219 209 217 215 198 205 220 233 207 200 218 167 135 184 177 173 186 180 175 168 171 171 167 175 176
357 355 354 354 352 350 348 347 341 342 344 341 339 333 329 324 273 257 314 344 2 126 32 168 206 240 257 182 99 62 133 212 234 233 252 223 207 194 196 200 203 205 214 231 234 223 217 220 226 235 233 232 254 284 252 233 219 218 228 223 228 233 244 228 202 208 213 188 199 217 231 205 218 251 194 161 192 192 183 189 188 182 170 171 173 170 175 175
356 354 353 352 350 347 344 344 341 340 342 341 339 332 331 324 268 256 301 333 324 202 343 227 220 240 273 35 116 197 217 313 323 272 244 225 225 208 185 189 193 196 204 217 226 222 215 218 224 232 233 225 232 247 239 228 217 212 223 226 223 220 234 236 202 197 207 200 196 203 215 188 188 226 202 177 191 193 182 192 203 191 173 173 172 171 177 175
355 353 352 350 348 344 339 341 340 339 341 341 337 327 325 322 282 257 280 299 276 216 244 265 274 248 269 13 184 267 347 350 342 265 213 217 237 214 176 185 187 187 194 204 212 209 204 209 218 223 228 227 217 221 234 228 215 207 214 228 229 223 226 229 202 185 198 211 202 201 211 199 194 202 187 184 194 192 179 190 209 197 176 176 174 174 176 176
354 351 350 349 347 342 335 336 339 342 341 339 335 319 309 306 290 269 269 267 231 227 242 258 275 249 221 46 336 339 350 346 347 254 218 202 228 213 186 189 182 182 191 198 200 198 195 198 210 217 215 222 217 210 221 221 217 215 207 220 231 227 225 225 217 186 194 213 209 211 213 195 196 179 166 211 204 193 185 191 208 197 181 177 175 178 177 179
352 349 348 347 345 341 335 327 333 344 340 339 335 313 292 283 272 258 247 224 211 243 257 228 264 272 36 43 10 352 327 304 278 251 217 189 210 201 190 191 182 183 191 190 190 194 194 194 205 217 211 211 215 212 220 227 232 236 222 220 226 228 227 225 230 199 187 207 216 217 214 199 200 170 159 207 208 198 196 203 207 187 180 181 175 183 183 183
351 349 345 344 342 340 334 322 325 340 334 331 327 304 274 282 258 227 241 229 234 334 339 24 344 314 349 9 359 341 288 257 265 267 167 186 194 190 188 193 187 187 199 194 185 189 195 203 206 213 215 210 214 219 228 239 250 265 254 239 227 229 233 220 230 220 186 197 222 218 217 211 202 174 168 189 202 201 196 215 222 186 175 182 177 187 189 186
350 348 344 342 340 337 332 323 316 330 327 314 317 315 7 357 329 353 334 270 214 319 299 7 335 314 11 351 353 346 298 231 98 69 142 197 191 187 182 190 197 192 205 202 185 187 199 216 214 212 220 218 217 220 228 240 247 255 258 259 239 228 237 222 223 230 197 190 227 221 225 221 203 197 187 178 189 203 196 205 214 189 174 179 177 187 195 188
348 347 343 339 338 335 329 321 308 318 323 298 308 358 35 1 333 328 323 276 198 197 246 277 268 313 30 334 4 338 286 237 136 102 136 220 211 200 179 190 211 199 201 205 189 189 204 222 222 213 218 225 225 220 222 234 241 242 240 253 253 231 240 234 226 237 214 193 227 218 227 231 214 215 201 174 176 208 213 203 201 185 169 177 179 181 193 187
346 346 342 338 336 333 325 320 296 282 305 305 348 26 5 347 326 305 290 277 243 189 210 222 238 345 19 0 32 316 282 266 184 103 119 249 235 217 213 205 218 213 204 207 200 199 208 218 222 219 215 221 228 223 219 227 232 238 235 236 245 234 238 235 221 238 232 215 235 226 225 229 222 222 205 181 179 205 219 207 212 200 167 169 182 180 187 185
346 344 341 338 334 329 327 315 277 254 271 287 39 32 351 334 318 297 272 272 256 183 178 199 245 350 17 353 318 295 292 310 304 65 110 264 267 222 240 229 221 223 213 211 213 216 220 217 214 219 219 217 224 220 218 226 223 229 234 234 244 238 237 242 232 234 231 223 238 245 242 226 219 225 211 190 191 204 207 198 215 205 162 164 181 179 184 184
345 343 341 338 332 328 326 303 271 291 289 257 27 15 345 329 317 294 274 265 238 170 154 168 212 49 18 289 277 295 289 218 261 36 67 282 307 286 249 245 229 229 218 212 220 225 225 225 210 212 217 215 222 221 215 225 229 224 227 230 244 253 247 245 249 245 229 221 220 226 246 236 212 222 221 201 198 201 193 195 211 198 166 174 182 179 182 184
343 343 340 337 332 327 317 299 326 322 293 260 19 352 334 330 311 280 271 258 212 155 154 175 193 95 -0 290 317 314 260 189 118 6 257 288 291 274 264 250 222 237 236 215 220 233 228 228 211 207 219 214 218 225 211 216 236 234 220 220 233 251 256 248 244 240 234 238 221 210 229 247 218 216 219 213 210 201 185 191 212 204 180 180 185 187 184 182
342 342 339 335 334 329 319 327 332 309 288 14 5 334 328 327 298 256 254 252 203 144 155 156 108 34 353 343 312 289 282 30 162 197 249 321 264 251 258 249 221 233 250 235 224 223 222 229 212 197 221 221 214 223 211 210 231 240 229 224 222 231 244 250 248 242 243 257 246 220 218 238 238 221 213 210 214 212 196 193 203 197 180 182 189 188 183 184
342 341 338 334 327 324 320 312 311 312 342 349 335 324 325 313 270 232 248 260 141 125 141 99 80 295 296 308 290 294 343 332 255 163 140 275 252 245 245 251 260 252 243 241 236 212 205 226 225 203 213 224 215 218 219 219 229 240 241 242 235 230 233 239 244 247 246 251 252 234 221 229 241 232 221 213 212 214 208 203 202 192 182 190 192 178 179 191
342 340 337 333 311 295 308 294 290 314 345 329 315 321 320 288 243 230 253 268 122 125 33 74 149 236 272 244 237 316 328 291 292 38 221 235 225 248 259 272 288 282 262 251 249 236 207 214 227 220 209 219 224 221 220 223 226 235 244 249 259 256 242 234 238 242 245 245 245 237 231 235 236 223 227 228 220 214 209 206 205 197 191 193 187 174 184 196
342 339 336 331 313 308 295 263 253 307 328 317 311 312 297 255 235 233 233 234 114 111 72 42 184 278 289 245 171 4 301 298 324 306 237 215 200 234 260 274 276 277 269 256 251 255 250 220 219 229 223 216 227 231 223 225 231 230 237 241 239 246 245 239 236 237 242 242 239 237 237 243 244 220 217 229 233 223 212 209 204 198 196 187 174 178 192 197
341 338 333 307 311 316 297 271 307 331 321 310 309 298 269 232 238 250 240 160 103 126 151 83 44 251 288 277 140 52 254 161 333 288 236 202 198 214 231 224 231 246 249 246 238 244 252 241 216 225 238 228 226 233 224 216 226 230 230 233 229 226 230 233 228 225 236 239 234 233 235 241 244 230 215 223 230 224 216 216 203 197 201 183 169 188 197 190
341 335 295 256 304 294 281 305 336 326 311 305 298 276 252 227 231 245 180 158 185 123 110 71 50 20 315 277 294 -0 278 188 358 291 278 268 218 197 271 281 263 245 233 231 224 217 231 240 224 208 228 232 224 224 220 208 211 222 223 223 226 219 214 221 217 216 230 235 232 229 229 236 243 240 234 232 228 215 211 220 206 198 205 189 175 188 193 184
340 323 241 274 299 269 273 299 313 307 303 296 278 252 248 249 241 274 58 92 52 57 71 69 45 2 307 257 186 16 267 265 352 283 248 270 255 173 201 340 336 290 270 271 248 218 208 222 223 215 207 214 219 216 213 207 202 212 216 212 218 218 212 216 215 221 231 229 225 226 228 234 240 239 235 237 242 227 212 213 212 210 208 192 179 184 194 191
338 296 248 284 268 254 277 290 296 298 290 274 254 229 237 245 226 53 50 66 64 74 95 33 296 260 281 306 27 354 260 156 20 280 232 229 235 197 159 61 1 307 293 292 270 242 229 216 211 216 201 188 208 223 228 222 209 210 217 220 222 223 225 224 215 219 232 231 217 215 222 232 233 230 227 227 232 239 232 209 205 221 215 194 185 190 200 192
339 270 259 280 266 265 283 286 291 286 267 249 236 230 237 251 35 54 50 59 59 89 123 180 273 244 197 126 71 359 314 78 69 272 251 238 253 231 111 43 19 340 307 284 283 267 256 245 156 201 215 198 203 215 230 240 230 205 207 221 224 224 233 245 249 237 234 241 223 208 214 229 235 238 232 227 218 219 234 222 195 217 220 201 192 193 199 192
336 284 254 272 300 315 304 288 287 263 247 238 236 238 219 46 29 30 29 10 354 344 304 228 245 246 199 149 139 114 42 313 313 283 227 200 345 27 43 28 6 350 341 305 302 301 259 248 97 139 229 222 211 208 217 231 241 215 205 218 222 226 236 246 260 256 244 240 228 213 216 215 223 228 209 222 222 211 218 221 204 213 219 206 196 193 196 195
328 303 260 286 335 330 308 289 277 246 242 245 247 290 30 53 28 21 21 345 345 335 297 263 196 264 272 233 157 108 21 280 257 269 237 161 145 61 64 62 21 349 349 329 301 333 315 281 291 268 235 226 225 262 248 231 235 236 215 209 210 221 238 245 251 250 242 240 231 227 230 213 206 215 190 198 218 214 212 214 211 212 216 210 201 198 198 198
310 290 264 340 349 330 309 287 266 244 244 250 233 34 23 44 37 25 23 345 311 270 283 286 48 337 293 291 316 75 342 299 62 310 274 192 136 66 13 56 49 8 345 326 294 318 328 291 265 238 242 234 218 258 269 239 233 252 261 245 225 219 221 226 238 240 232 235 231 231 238 229 212 212 199 197 205 212 212 211 212 211 210 210 207 203 202 203
288 264 254 15 357 332 308 276 258 245 245 258 225 101 53 57 53 24 11 345 303 286 305 328 26 243 220 313 335 28 8 310 346 327 278 292 98 75 38 5 3 2 347 320 298 306 311 285 270 240 231 240 218 210 236 233 231 253 266 267 257 242 226 217 223 235 236 236 231 225 228 231 226 219 216 204 196 205 211 207 212 214 209 208 211 210 203 203
283 252 43 20 -0 333 296 263 248 249 244 318 28 88 78 75 71 39 15 348 313 304 336 349 13 280 284 23 300 273 6 327 310 295 292 353 119 127 80 39 337 338 336 304 281 288 281 265 275 258 219 232 237 217 229 233 224 228 238 244 241 242 253 241 223 220 232 237 235 233 226 222 222 213 216 214 184 197 210 207 208 215 216 212 210 213 208 199
296 271 27 13 349 302 284 261 242 268 222 71 53 71 54 31 51 55 46 352 323 43 352 323 315 310 316 323 292 297 325 282 275 273 259 247 225 196 68 42 354 335 323 283 257 268 272 259 269 262 235 225 225 219 229 238 241 238 235 236 231 224 236 244 227 215 220 231 236 243 243 235 220 190 203 217 202 185 197 203 207 214 222 221 209 207 207 198
289 318 13 357 330 293 286 270 81 335 33 72 63 77 56 324 11 27 37 344 332 92 340 287 310 327 303 306 324 336 295 275 280 279 268 266 295 52 63 45 354 328 311 285 280 336 343 292 277 264 259 263 258 251 253 264 273 270 255 246 240 229 222 227 231 221 217 224 227 233 244 248 113 108 180 217 207 186 185 195 209 213 217 224 216 206 204 199
343 38 31 358 328 298 282 109 90 12 63 78 70 72 40 317 7 18 15 351 337 112 276 289 29 347 316 328 322 310 306 297 280 270 278 285 334 56 46 30 2 311 285 279 286 355 41 256 262 264 268 277 280 279 279 277 272 261 250 250 248 238 228 224 234 239 231 229 225 221 230 230 145 121 149 198 192 196 193 189 208 218 210 215 217 210 202 198
10 357 47 17 343 309 274 103 96 98 95 120 136 99 75 29 8 358 27 16 338 330 323 324 13 356 310 320 306 298 307 302 274 269 284 286 5 48 8 4 -0 294 284 335 341 356 333 246 244 253 255 250 250 255 255 248 243 242 241 239 242 245 239 230 230 237 242 248 250 238 223 217 176 131 118 125 200 236 213 181 189 221 227 212 215 212 197 191
299 275 80 41 6 5 16 16 61 112 97 96 99 87 103 94 41 344 350 17 339 326 338 341 329 305 298 299 292 290 290 285 283 285 287 282 296 29 315 340 321 275 306 19 351 318 298 276 261 254 246 234 223 224 252 256 249 250 241 234 236 240 237 235 237 234 230 243 254 255 240 225 209 176 145 158 222 265 260 194 105 113 242 235 11 293 201 188
311 325 56 67 50 59 46 14 35 103 105 93 84 43 20 84 100 26 335 6 20 319 318 22 310 287 285 292 288 285 281 275 277 280 281 280 274 280 288 293 268 263 309 1 324 292 282 275 269 265 258 259 272 310 322 311 301 280 257 247 246 240 231 236 251 240 233 238 241 243 253 251 235 217 191 168 171 310 324 35 44 44 34 37 30 13 359 220
353 16 12 18 41 65 67 44 43 59 55 44 78 46 17 10 84 81 353 352 11 325 321 17 332 297 307 311 296 285 279 266 259 260 265 268 267 265 260 251 254 261 278 294 275 261 269 262 255 257 259 266 282 295 298 293 287 285 280 275 277 261 234 226 238 244 242 239 232 227 232 239 244 239 200 116 71 37 34 33 39 50 39 30 22 7 349 339
24 44 27 331 320 41 52 51 62 67 60 63 78 66 33 19 29 51 45 292 327 345 347 111 281 306 326 322 303 298 303 289 270 269 278 284 288 282 258 244 249 249 245 248 244 238 253 258 254 256 255 254 264 274 280 282 277 277 278 274 282 278 244 225 233 248 248 244 243 235 228 230 231 218 70 37 11 20 18 4 26 58 43 28 14 358 340 329
32 63 53 329 320 64 54 42 70 81 66 51 70 65 33 33 39 22 356 294 245 41 352 304 318 322 317 316 304 302 319 309 295 301 306 298 294 293 282 266 256 240 231 238 246 246 249 256 261 264 260 254 255 262 273 278 273 269 268 262 264 267 251 237 242 249 248 253 258 251 241 242 244 237 40 357 303 324 353 340 9 35 31 24 9 356 1 5
34 50 45 52 75 66 56 56 61 85 81 17 30 65 33 21 33 7 342 327 325 85 348 304 317 316 312 314 295 284 298 301 293 297 298 288 286 283 277 281 287 272 247 234 237 244 244 253 261 265 263 255 253 255 261 266 265 263 261 256 254 251 243 243 254 255 251 255 257 252 246 249 255 256 334 337 298 297 323 333 -0 13 13 7 350 346 359 359
48 54 -0 9 75 23 351 62 59 75 80 48 26 44 19 30 30 343 335 37 328 318 327 311 310 311 306 298 283 282 294 294 287 285 279 273 274 271 265 274 286 281 264 247 237 230 231 251 258 258 261 255 249 248 252 260 261 258 254 249 246 243 238 241 250 251 251 255 250 243 239 243 254 266 310 319 300 300 326 342 350 352 352 342 327 327 337 337
49 72 330 307 75 10 319 57 56 351 62 40 18 25 359 17 24 335 328 112 248 279 300 300 299 303 299 291 291 301 305 298 291 290 287 280 275 268 262 261 259 259 260 259 256 240 235 250 256 250 254 256 251 247 248 255 254 247 246 246 243 240 239 242 246 245 247 251 249 240 234 241 262 305 337 320 311 327 348 350 345 340 336 328 322 324 329 334
Height
814 812 810 807 805 803 801 799 797 795 794 792 791 790 788 787 786 784 783 781 780 778 778 776 775 774 773 772 771 770 770 770 769 768 766 761 759 759 759 759 760 761 763 763 762 763 762 763 762 761 762 761 762 759 754 754 754 759 771 779 776 782 789 773 765 767 768 769 765 754 743 749 753 746 742 742 746 748 750 749 747 748 748 750 756 764 770 776
814 812 809 807 805 802 800 798 796 795 793 792 790 789 788 786 785 784 783 781 779 778 777 776 774 774 772 771 771 770 769 769 768 764 760 758 758 758 758 758 759 760 761 762 760 758 760 761 759 760 762 762 761 757 756 753 756 763 769 772 767 774 776 755 751 757 761 767 767 754 746 749 748 743 739 747 755 751 756 756 751 755 754 754 758 766 772 776
814 812 809 806 804 802 800 797 796 794 792 791 790 789 787 786 785 783 782 780 779 777 776 775 774 773 772 771 770 769 769 768 764 759 755 756 757 756 756 757 758 759 760 759 758 756 757 758 758 759 762 763 758 756 759 755 756 760 763 769 764 762 756 741 740 745 748 753 756 748 745 753 747 740 740 748 756 752 757 758 756 763 762 761 762 766 773 776
814 812 809 806 804 801 799 797 795 793 792 791 789 788 786 785 784 782 781 779 778 776 775 774 773 772 772 770 770 769 769 767 759 753 754 755 755 754 755 756 756 758 759 758 758 756 755 755 756 758 762 764 757 755 760 757 755 755 757 765 758 748 748 744 739 740 738 738 742 739 745 760 750 737 740 751 760 758 757 754 753 761 761 763 765 766 772 775
814 811 809 806 803 801 799 797 795 793 792 790 788 787 785 784 783 781 779 778 777 775 774 773 772 772 771 770 770 769 770 766 754 749 754 753 752 752 752 754 756 757 758 758 757 755 754 753 755 759 763 763 758 758 760 752 750 755 752 750 744 740 751 749 738 740 740 735 738 739 747 756 749 739 741 755 766 764 762 754 747 752 755 759 763 766 770 774
814 811 808 805 803 800 798 796 794 793 791 789 788 786 784 783 781 780 778 777 775 774 773 772 771 771 771 770 769 770 770 763 750 749 752 751 750 749 751 752 754 757 758 758 754 754 754 753 758 763 764 763 760 758 757 748 747 759 752 743 741 738 749 747 737 742 741 739 742 743 743 739 744 747 746 758 762 755 757 754 745 746 750 755 760 766 769 772
814 811 808 805 802 800 797 796 794 792 791 789 787 785 783 781 779 778 776 775 774 773 772 771 771 771 770 769 769 769 766 756 748 751 751 749 749 747 750 751 753 757 758 756 752 752 753 755 760 762 763 764 760 755 752 747 746 758 755 743 740 736 741 740 736 740 739 741 740 737 739 737 745 749 748 758 753 746 753 750 743 743 748 754 760 766 768 771
814 811 808 805 802 800 797 795 793 792 790 788 786 784 782 779 777 776 775 774 772 771 771 770 770 770 770 770 768 764 759 752 748 751 750 749 749 747 750 752 754 756 755 754 750 750 752 756 759 757 763 762 755 752 749 750 750 754 755 744 739 737 737 735 735 738 738 740 735 734 741 740 741 741 748 760 752 747 747 743 742 745 750 756 762 766 768 771
813 810 807 804 802 799 797 795 793 791 790 787 785 783 780 778 775 774 773 772 771 771 770 770 770 769 770 769 765 761 753 750 750 751 751 751 749 748 750 752 755 755 754 752 748 749 751 755 755 752 758 755 750 750 747 755 756 748 749 745 741 740 736 734 737 737 738 737 735 742 744 739 736 740 753 759 754 748 740 741 745 749 755 759 763 765 768 771
813 809 807 804 801 799 797 795 793 791 789 787 784 782 779 776 775 774 772 772 771 771 770 770 770 769 770 767 764 760 752 750 752 751 752 752 750 750 752 752 754 754 752 750 747 748 748 750 749 745 750 750 748 749 747 753 750 740 744 744 741 741 735 735 738 736 738 737 736 744 747 744 738 745 762 754 746 746 741 746 749 751 758 760 763 764 767 770
813 809 806 803 800 798 796 794 792 791 789 786 783 781 778 776 775 773 772 772 771 770 770 769 769 769 769 766 763 757 751 751 752 751 752 752 751 752 752 752 753 753 750 748 748 746 746 745 742 745 752 752 749 749 746 744 742 739 743 746 743 741 737 736 738 737 739 738 736 739 748 752 745 751 764 750 741 744 745 751 753 755 759 759 762 763 766 768
813 810 806 803 801 798 796 794 792 790 788 785 783 780 778 777 775 774 773 772 771 770 769 768 769 769 768 764 759 754 751 753 752 752 752 751 752 752 751 752 752 752 750 747 747 746 747 744 742 750 751 749 752 754 747 738 740 742 743 753 750 742 743 739 737 737 738 740 734 737 756 764 758 759 759 747 743 745 748 753 755 757 758 760 763 763 766 767
813 810 806 804 801 798 796 793 791 789 787 784 782 779 778 776 775 774 773 771 770 768 768 768 768 768 768 762 753 753 753 752 753 752 752 751 751 751 751 752 752 752 750 747 747 746 748 744 745 748 744 748 752 748 743 737 742 747 746 755 755 751 748 735 732 734 736 738 729 742 774 777 763 757 751 749 749 750 757 759 758 758 758 760 762 764 766 766
812 809 806 803 800 798 795 793 791 789 786 784 781 779 777 776 774 773 772 771 769 768 768 767 768 768 767 758 751 753 753 752 752 751 751 751 750 750 751 751 752 752 750 748 747 746 747 745 745 746 743 746 745 740 746 747 745 751 752 754 757 760 751 728 726 733 737 736 727 744 775 773 760 753 747 751 753 754 763 763 758 758 758 760 760 764 767 765
812 809 805 802 800 797 795 793 791 788 786 783 780 778 777 775 774 773 772 771 769 769 768 767 767 766 763 755 751 752 752 750 750 749 750 750 748 748 749 750 751 751 751 750 749 747 747 746 747 752 749 744 744 750 758 754 747 750 759 762 756 757 749 727 719 727 735 734 729 749 771 769 765 758 750 753 756 756 762 763 759 756 757 759 759 762 765 764
812 809 805 802 799 797 795 792 790 788 785 782 780 778 776 775 773 773 772 770 770 769 768 767 765 764 762 754 749 750 749 749 749 749 750 749 747 746 747 749 750 750 752 751 749 748 746 747 749 752 751 749 753 760 760 758 754 749 756 761 752 751 750 734 718 715 725 731 732 745 763 769 766 758 750 752 755 756 761 766 762 757 756 757 758 760 762 764
812 809 806 803 800 797 795 792 790 788 785 782 780 777 776 774 773 772 771 770 770 768 768 766 761 762 760 750 749 751 749 748 749 749 749 749 748 746 746 748 748 750 750 750 750 749 748 751 754 753 752 753 753 758 767 768 761 751 750 753 745 742 745 739 725 714 718 730 736 741 749 757 756 749 749 750 751 754 763 772 767 759 757 756 756 758 760 763
812 808 806 803 800 797 795 793 790 788 785 781 778 777 775 773 772 771 770 769 769 768 768 764 761 765 762 752 752 753 749 749 749 748 748 748 748 746 746 746 746 749 752 753 752 751 753 753 756 758 757 756 752 755 768 764 752 749 748 750 746 738 737 737 729 718 720 729 738 746 747 748 747 745 750 751 748 752 759 769 769 760 757 756 755 757 759 761
811 808 805 803 800 797 795 793 791 788 785 781 777 776 773 772 772 770 768 767 767 767 766 762 760 764 763 755 752 751 749 749 749 747 746 747 747 746 745 745 745 749 756 759 756 753 754 756 759 763 760 756 751 749 753 746 737 738 737 740 744 739 733 729 720 710 715 731 739 742 745 746 745 744 751 752 747 751 756 760 763 758 755 755 756 757 758 760
811 807 805 802 799 796 794 792 791 789 786 781 777 773 771 772 770 767 765 761 760 761 761 758 756 757 757 753 751 750 749 748 746 744 745 746 745 745 745 745 747 751 754 756 757 750 750 760 762 759 753 748 746 742 741 736 731 734 735 734 735 736 732 721 716 706 706 730 737 730 739 745 742 741 748 750 747 748 755 761 761 756 755 756 757 757 756 758
810 807 803 800 798 795 793 792 790 789 786 782 778 773 774 776 774 772 769 761 757 758 758 757 756 755 755 754 752 751 750 748 745 744 746 745 743 748 748 747 752 756 751 748 749 747 751 761 755 747 744 739 738 739 739 738 736 739 742 739 733 733 729 715 714 708 701 725 736 727 736 738 736 742 741 741 747 747 751 764 764 755 753 753 755 757 755 755
809 806 802 799 797 794 792 790 789 788 785 782 779 777 777 780 779 778 776 768 759 756 758 756 755 754 752 753 753 752 752 751 748 745 746 745 744 749 749 748 754 753 746 743 747 753 758 757 746 737 736 735 735 735 738 742 741 743 744 745 741 732 727 719 714 708 700 720 736 731 737 737 731 736 732 731 741 744 740 747 754 752 751 751 751 754 755 757
809 805 802 799 795 793 791 789 788 787 784 781 779 780 780 781 780 778 778 774 763 756 756 756 757 756 754 754 752 753 753 751 751 748 745 747 745 745 747 749 751 747 744 743 747 756 759 751 738 731 732 736 738 736 740 744 744 746 744 748 746 732 734 735 724 715 705 714 729 729 733 734 727 728 729 728 733 738 733 732 740 743 746 747 746 749 753 756
808 804 801 798 794 792 789 788 786 784 784 781 779 781 781 781 780 778 777 771 763 756 754 755 756 756 757 756 753 753 753 750 751 749 746 747 745 744 746 746 748 747 743 740 741 747 748 737 728 730 732 736 742 740 743 747 747 745 741 745 744 732 733 734 724 718 714 717 724 729 738 735 727 731 730 725 730 734 730 732 738 735 737 744 745 748 751 752
807 804 800 797 794 790 788 787 783 781 781 778 779 781 781 781 779 779 778 771 762 756 755 756 755 756 756 755 753 751 751 751 749 748 746 746 746 748 747 741 743 747 741 738 741 742 739 727 722 732 734 735 742 743 742 746 748 745 739 738 738 733 731 729 724 726 734 738 727 732 757 748 726 730 728 722 730 733 726 730 735 730 733 741 745 748 750 750
806 803 799 797 793 790 787 784 782 781 778 776 780 781 780 781 778 778 779 771 761 757 758 758 757 758 757 755 752 749 755 755 747 746 746 746 746 748 751 742 739 744 736 732 737 737 732 724 722 732 735 735 742 742 738 742 749 748 734 728 733 734 734 732 730 736 747 748 724 721 754 755 730 726 722 717 725 727 726 732 734 733 733 737 743 746 746 749
804 801 798 796 793 791 787 783 783 780 776 777 780 781 780 780 778 778 780 774 763 756 757 757 757 759 758 754 750 753 763 758 747 747 746 747 746 745 753 747 739 741 731 730 742 738 730 729 727 733 737 738 742 743 736 736 748 746 726 722 731 735 739 736 734 740 741 736 725 715 731 749 741 724 712 712 720 722 723 730 735 736 735 736 741 741 741 746
803 800 797 795 793 792 789 787 785 779 778 780 780 781 780 778 778 777 780 780 765 753 755 757 757 757 754 752 750 753 757 753 753 753 744 746 747 745 753 748 741 740 730 737 749 734 726 734 731 731 740 740 738 739 732 732 743 738 722 721 727 730 736 736 737 741 736 739 745 726 720 744 748 722 704 705 715 722 721 721 725 727 729 732 734 734 739 745
802 799 796 794 792 791 790 789 786 781 781 782 780 781 778 777 778 774 780 780 761 754 759 758 757 758 754 752 754 754 752 751 755 751 743 745 745 745 750 745 741 742 733 736 744 730 722 727 725 727 738 740 734 729 725 730 736 730 722 724 728 730 732 734 739 740 739 749 755 735 723 741 744 722 711 710 712 716 715 712 712 715 720 724 726 732 739 743
800 797 795 793 791 790 789 787 786 783 782 782 780 780 776 777 777 778 784 775 756 757 760 756 758 760 757 755 756 757 755 754 753 747 745 746 745 745 744 741 743 747 741 737 738 731 720 716 717 723 728 729 728 724 720 725 727 725 727 732 736 739 736 736 736 738 751 759 750 734 724 734 741 726 714 714 707 701 703 706 706 707 711 716 721 729 735 737
798 796 794 793 791 790 787 783 782 783 783 782 780 777 776 775 774 779 780 763 755 762 761 760 763 760 759 759 759 759 757 756 754 751 749 745 746 747 745 745 747 749 750 745 740 736 728 724 722 721 720 720 726 727 721 721 724 728 734 739 746 748 744 747 743 745 764 764 743 729 723 730 743 728 708 703 695 689 695 701 703 705 706 711 719 724 727 729
797 794 793 792 791 790 787 783 782 783 782 781 780 776 776 778 775 771 764 755 762 767 762 765 766 761 763 762 761 762 760 758 756 755 753 749 748 749 751 753 752 757 759 747 740 738 734 729 723 721 721 719 729 735 730 726 728 734 738 744 757 761 761 767 761 755 762 755 733 724 725 732 734 717 701 696 689 685 689 690 693 699 701 705 714 717 717 721
795 793 791 791 789 788 787 785 784 784 782 781 780 774 776 784 777 761 752 756 767 766 762 767 766 764 766 763 763 764 762 761 759 757 756 754 753 752 756 756 754 760 759 746 740 738 736 730 721 725 726 720 727 738 739 735 733 738 739 745 759 765 772 778 767 758 756 743 726 718 725 734 728 710 697 693 687 680 680 681 684 689 691 696 705 711 713 714
793 791 790 789 788 787 785 784 783 783 782 780 778 775 780 783 768 754 755 762 767 765 765 769 768 767 768 765 766 766 765 765 761 759 758 755 755 753 755 759 759 759 756 752 744 736 740 738 724 723 723 720 724 728 729 727 728 732 729 734 746 749 758 765 757 755 751 736 723 720 727 734 727 708 689 684 683 678 676 675 679 683 682 686 694 703 706 707
792 790 789 787 785 784 783 783 782 782 781 778 776 777 780 776 760 755 763 766 766 767 767 769 769 769 768 768 769 767 768 769 762 760 759 755 755 754 757 765 766 763 761 762 750 736 738 732 714 712 713 714 723 722 717 722 727 724 719 730 739 731 734 741 735 730 731 731 725 720 722 716 705 692 679 678 680 679 679 676 679 685 680 680 688 695 698 700
791 789 788 786 783 782 782 782 780 781 779 776 777 775 771 771 767 766 771 770 769 771 769 769 769 768 765 767 770 770 770 769 765 763 759 758 761 762 767 772 770 769 769 769 760 748 747 734 714 716 718 711 716 717 715 723 726 718 720 731 727 715 721 735 736 720 720 735 726 712 714 708 700 695 684 682 684 681 683 682 683 686 681 680 686 688 691 694
791 789 786 783 782 781 780 780 779 780 777 773 777 774 765 768 773 772 773 773 772 773 773 772 771 770 769 768 769 773 773 768 766 767 762 761 768 769 771 774 774 773 772 772 766 755 757 750 726 724 730 715 708 716 716 713 714 717 722 720 712 714 720 728 742 738 735 742 724 707 712 711 715 715 693 688 694 687 684 684 684 686 683 683 684 684 686 686
792 789 784 781 781 780 779 779 778 776 774 772 776 776 771 772 775 774 775 775 773 774 774 773 773 774 776 773 769 772 777 772 768 770 766 763 771 774 772 774 776 774 772 774 771 758 761 764 740 726 733 722 711 726 731 714 708 714 714 706 711 731 736 733 745 749 746 748 734 718 713 707 710 710 695 693 697 690 685 683 684 685 684 684 683 682 683 682
791 786 782 780 780 779 778 779 775 772 773 772 772 775 776 778 779 777 777 777 776 776 775 774 776 777 775 776 776 774 778 779 774 774 771 767 774 776 775 778 778 776 773 774 773 764 763 772 758 731 726 726 720 732 743 731 719 719 718 713 715 722 726 727 732 736 740 746 740 730 723 711 697 688 686 687 686 685 686 683 682 682 680 681 681 679 680 681
786 782 780 779 779 778 777 776 773 770 772 772 770 774 779 780 782 780 779 780 778 778 781 779 779 779 775 777 779 775 778 782 779 779 776 772 776 777 777 782 782 779 777 774 774 770 766 774 771 744 727 734 736 734 738 735 729 728 729 728 724 719 718 720 718 718 728 739 739 734 729 711 684 671 675 678 676 678 680 679 680 678 673 674 675 675 676 677
783 779 779 779 779 778 775 772 772 768 768 773 776 780 784 784 783 783 782 783 780 780 784 782 780 783 781 779 776 776 782 783 777 778 776 770 773 778 780 784 785 784 782 776 771 771 770 772 772 758 742 742 738 727 725 726 722 723 726 724 722 721 726 736 732 715 713 726 730 732 731 705 669 659 667 670 671 672 671 674 676 674 671 669 667 669 671 673
782 780 782 780 778 777 773 772 773 768 769 778 782 785 789 787 785 786 785 784 783 783 784 782 781 784 783 780 779 781 784 780 776 778 774 766 769 778 784 786 786 785 785 780 770 768 775 779 777 769 753 741 731 722 722 725 721 722 724 719 716 715 720 738 743 720 710 717 715 719 730 707 668 658 665 666 666 667 667 670 672 670 668 665 662 662 664 667
779 780 782 781 778 774 773 776 779 777 781 787 787 787 790 787 785 786 786 787 786 785 784 781 783 789 787 785 788 788 786 784 782 781 777 773 773 781 786 786 787 787 785 782 774 772 780 784 782 777 760 745 737 729 726 727 728 730 727 719 717 715 711 719 723 714 715 718 710 719 734 713 676 663 666 666 665 665 665 666 668 668 665 663 662 660 660 664
784 782 779 781 779 772 771 776 781 785 787 787 788 790 792 792 792 789 789 792 791 786 786 786 787 793 793 789 792 792 791 793 789 781 782 784 783 785 786 787 791 790 785 784 783 783 786 783 781 783 776 764 756 749 741 734 729 730 727 720 718 714 709 710 709 713 726 727 718 725 732 708 677 668 671 672 671 670 667 663 665 667 665 662 661 659 659 663
789 784 778 780 778 771 772 772 776 786 789 787 789 792 792 795 800 798 793 795 796 791 792 795 793 794 794 793 796 794 792 797 795 787 788 789 787 788 787 790 796 791 787 791 792 791 792 787 783 785 783 774 766 764 761 749 737 732 726 720 718 715 714 716 716 724 736 734 727 730 724 698 675 671 677 680 681 679 672 666 666 669 666 665 665 663 660 662
787 784 781 779 775 774 779 777 776 785 791 792 795 795 794 796 801 803 799 799 800 796 793 796 797 798 797 797 801 801 797 798 800 797 798 798 795 793 791 793 796 791 791 797 796 794 796 792 786 785 780 769 762 763 764 760 754 748 735 727 723 717 713 721 731 735 733 731 731 728 720 708 691 681 681 685 688 688 682 677 677 676 673 671 671 670 667 665
788 790 791 790 786 783 786 786 786 789 791 793 800 802 801 799 799 803 804 803 802 798 796 799 801 802 804 804 807 808 804 802 802 801 801 800 797 795 793 794 794 792 793 798 797 796 800 795 785 783 780 771 765 764 763 762 762 757 748 741 734 724 720 728 739 735 727 735 737 721 713 718 710 695 691 695 698 697 692 688 686 684 682 679 677 675 673 671
793 797 797 799 799 795 794 794 794 796 795 796 802 805 804 804 804 806 807 804 802 802 804 806 806 805 806 810 812 811 807 805 804 802 801 800 798 797 794 792 792 792 794 796 793 792 798 794 781 777 776 770 766 765 762 762 761 757 754 750 743 736 730 730 735 731 729 739 737 717 712 717 708 700 703 706 705 702 697 692 687 685 686 686 684 682 678 675
801 802 799 799 801 801 800 799 796 798 802 803 804 807 808 809 810 810 808 806 805 807 810 811 810 807 805 808 812 813 811 810 810 809 808 806 804 803 800 796 793 791 791 794 792 789 793 793 783 777 773 767 764 763 763 763 762 758 754 749 745 741 733 731 735 732 729 732 728 717 716 715 703 700 708 710 705 701 698 693 689 691 692 692 692 690 687 685
810 811 807 803 803 804 802 799 798 800 804 806 805 808 811 811 814 814 811 810 811 812 813 813 811 808 806 808 812 812 809 808 810 810 810 809 807 805 804 799 797 795 792 791 791 792 795 796 788 781 777 770 763 762 763 763 761 759 754 747 745 742 737 738 740 733 730 732 726 719 720 715 703 699 705 708 704 702 701 699 698 698 697 698 698 696 693 694
817 818 816 811 811 812 807 803 803 801 803 808 809 811 812 812 816 818 814 813 815 815 814 815 812 809 808 810 812 809 804 804 805 803 802 803 801 800 799 796 798 802 797 790 790 793 796 798 790 786 786 777 763 761 763 760 757 756 752 747 745 744 742 741 740 734 733 733 729 726 725 717 703 700 706 707 704 706 707 705 704 703 702 703 703 699 697 698
821 820 819 814 813 815 811 806 804 803 808 816 816 815 816 815 815 818 816 814 814 813 813 813 812 811 812 812 810 806 802 801 801 798 795 795 792 791 792 791 792 795 793 790 791 789 791 795 792 791 791 780 765 759 759 760 762 759 748 741 740 740 739 738 735 730 727 727 730 729 723 713 704 707 714 712 708 711 712 709 708 707 705 704 703 701 701 700